x

Gulf Of Maine - 78 Nm East Of Portsmouth, Nh (44005) Wave Buoy

11:50am - Mon 26th Jan 2015 All times are EST. -5 hours from GMT.

  • Sig Wave height 3.6ft
  • Peak Period 12s
  • Average Period 5s
  • Wind
    16mph, 22mph gusts
  • Sea Temp 45°f
  • 空気 Temp 22°f
  • Sea Pressure 1020.9mb
  • Gulf Of Maine - 78 Nm East Of Portsmouth, Nh
  • Gulf Of Maine - 78 Nm East Of Portsmouth, Nh

More Historic Weather Station data

Upgrade to MSW Pro to gain access to the past 30 days of data for over 8000 Wavebouys and Weather Stations around the globe.

Join Pro

Comparision Forecast

View Surf forecast
   
Mon 01/26 11:50am 3.5ft 12s 5s 16 22 mph 1020.9mb 45f 22f
10:50am 4ft 12s 5s 16 22 mph 1022.1mb 45f 22f
9:50am 4ft 12s 5s 16 20 mph 1021.9mb 45f 21f
8:50am 4.5ft 12s 6s 13 18 mph 1021.7mb 45f 21f
7:50am 5ft 11s 5s 13 18 mph 1021.2mb 45f 20f
6:50am 6ft 11s 5s 16 25 mph 1020.2mb 45f 21f
5:50am 6.5ft 11s 6s 20 29 mph - 45f 21f
4:50am 6.5ft 11s 5s 20 25 mph 1018.2mb 45f 22f
3:50am 7ft 6s 5s 18 25 mph - 45f 23f
2:50am 7.5ft 6s 5s 20 27 mph 1016.8mb 45f 23f
1:50am 8ft 6s 5s 25 31 mph 1016.7mb 45f 23f
12:50am 7.5ft 6s 5s 25 31 mph 1015.5mb 45f 22f
Sun 01/25 11:50pm 7ft 6s 5s 27 31 mph 1014.8mb 45f 23f
10:50pm 8ft 6s 5s 27 36 mph 1014mb 45f 24f
9:50pm  -   -   -  27 34 mph 1012.9mb 45f 26f
8:50pm 8ft 6s 5s 27 34 mph 1011.4mb 45f 27f
7:50pm  -   -   -  27
mph
- - -
6:50pm 9ft 13s 6s 27 34 mph 1008.3mb 45f 31f
5:50pm  -   -   -  25 31 mph 1007mb 45f 32f
4:50pm  -   -   -  27 36 mph 1004.8mb 45f 33f
3:50pm 9.5ft 12s 6s 29 34 mph 1002.8mb 45f 34f
2:50pm 10.5ft 12s 6s 27 34 mph 1001.3mb 45f 35f
1:50pm  -   -   -  27 34 mph 1000mb 45f 35f
12:50pm  -   -   -  27 34 mph 999mb 45f 38f
11:50am 10ft 14s 6s 29 36 mph 998mb 45f 38f
10:50am 10ft 14s 6s 31 36 mph 997.2mb 45f 40f
9:50am 11ft 7s 6s 31 43 mph 996mb 45f 41f
8:50am  -   -   -  34
mph
- - 41f
7:50am  -   -   -  27 34 mph 994.8mb 45f 40f
6:50am 10ft 14s 6s 25 31 mph 994.2mb 45f 39f
5:50am 10ft 13s 7s 25 31 mph 992.9mb 45f 39f
4:50am  -   -   -  25 31 mph 991.9mb 45f 39f
3:50am 9ft 13s 6s 25 29 mph 990.8mb 45f 38f
2:50am 9.5ft 11s 6s 22 27 mph 989.6mb 45f 38f
1:50am 9.5ft 11s 6s 27 34 mph 988.3mb 45f 38f
12:50am 8ft 7s 6s 27 34 mph 987mb 45f 38f
Sat 01/24 11:50pm  -   -   -  27 31 mph 986mb 45f 37f
10:50pm 10ft 7s 6s 36 43 mph 984.9mb 45f 35f
9:50pm 9ft 7s 5s 34 40 mph 983.8mb 45f 35f
8:50pm 9.5ft 7s 5s 36 43 mph 981.9mb 45f 35f
7:50pm 8.5ft 7s 5s 31 38 mph 982.7mb 45f 36f
6:50pm 8ft 6s 5s 31 36 mph 982.9mb 45f 38f
5:50pm 6ft 5s 5s 34 40 mph 982.5mb 45f 39f
4:50pm 5ft 5s 4s 31 36 mph 984.7mb 45f 39f
3:50pm 4ft 4s 4s 27 31 mph 988.7mb 45f 39f
2:50pm 3.5ft 3s 4s 22 27 mph 991.4mb 45f 38f
1:50pm 2.5ft 6s 4s 20 25 mph 993.4mb 45f 37f
12:50pm 3.5ft 5s 5s 13 16 mph 996.9mb 45f 36f
11:50am 3.5ft 6s 5s 9 11 mph 999.7mb 45f 35f
10:50am 4.5ft 6s 5s 2 4 mph 1002.5mb 45f 36f
9:50am 5ft 6s 5s 7 9 mph 1004.5mb 46f 37f
8:50am 6ft 6s 5s 16 20 mph 1005.9mb 46f 38f
7:50am 6ft 6s 5s 25 29 mph 1007.2mb 45f 39f
6:50am 5.5ft 6s 5s 25 29 mph 1007.7mb 45f 39f
5:50am  -   -   -  22 27 mph 1007.4mb 45f 39f
4:50am 5.5ft 6s 5s 20 25 mph 1007.9mb 45f 38f
3:50am 6.5ft 7s 5s 20 25 mph 1008.4mb 45f 38f
2:50am 7.5ft 6s 5s 22 27 mph 1009.8mb 45f 38f
1:50am 7ft 6s 5s 25 29 mph 1010.4mb 45f 38f
12:50am 6ft 6s 5s 25 29 mph 1010.7mb 45f 38f
Fri 01/23 11:50pm 6ft 6s 5s 27 31 mph 1011.8mb 45f 38f
10:50pm 6ft 6s 5s 25 29 mph 1012.6mb 45f 38f
9:50pm 5ft 5s 4s 22 29 mph 1013.9mb 45f 38f
8:50pm 4.5ft 5s 4s 25 31 mph 1014.7mb 45f 38f
7:50pm 4.5ft 5s 4s 22 27 mph 1015.7mb 45f 37f
6:50pm 4.5ft 11s 5s 20 25 mph 1016.2mb 45f 35f
5:50pm 4.5ft 11s 5s 20 25 mph 1016.6mb 45f 34f
4:50pm 5ft 9s 5s 20 27 mph 1016.7mb 45f 34f
3:50pm 5ft 10s 6s 18 22 mph 1017.1mb 45f 33f
2:50pm 4.5ft 10s 6s 18 25 mph 1017.6mb 45f 32f
1:50pm 4.5ft 10s 6s 16 20 mph 1018.6mb 45f 31f
12:50pm 3.5ft 11s 5s 13 18 mph 1019.5mb 45f 32f
11:50am 3.5ft 11s 5s 13 18 mph 1020.7mb 45f 31f
10:50am 4ft 11s 5s 13 18 mph 1022mb 45f 30f
9:50am 4ft 5s 5s 11 13 mph 1022.8mb 45f 30f
8:50am 5ft 5s 5s 13 20 mph 1023mb 45f 29f
7:50am 6ft 11s 5s 16 22 mph 1022.7mb 45f 29f
6:50am 6.5ft 5s 5s 22 27 mph 1022.8mb 45f 29f
5:50am 6ft 5s 5s 20 29 mph 1022.6mb 45f 29f
4:50am 6ft 6s 5s 20 25 mph 1022.2mb 45f 29f
3:50am 5.5ft 8s 5s 22 27 mph 1021.4mb 45f 30f
2:50am 4.5ft 9s 5s 25 29 mph 1021mb 45f 32f
1:50am 3.5ft 9s 5s 20 25 mph 1020.5mb 45f 34f
12:50am 3.5ft 9s 4s 16 20 mph 1020mb 45f 36f
Thu 01/22 11:50pm  -   -   -  13 18 mph 1020.2mb 45f 37f
10:50pm 3ft 6s 4s 13 16 mph 1020.5mb 45f 36f
9:50pm  -   -   -  13 20 mph 1020.9mb 45f 36f
8:50pm 3.5ft 6s 5s 13 18 mph 1021.2mb 45f 36f
7:50pm 3.5ft 6s 5s 13 20 mph 1021.7mb 45f 35f
6:50pm 3.5ft 6s 5s 11 16 mph 1021.8mb 45f 34f
5:50pm 4ft 6s 5s 13 18 mph 1021.8mb 45f 33f